Regional Weather Roundup
Issued by NWS

Home | Current Version | Previous Version | Graphics & Text | Print | Product List | Glossary On
Versions: 1 2 3 4 5 6 7 8 9 10 11 12 13 14 15 16 17 18 19 20 21 22 23 24 25 26 27
000
ASUS45 KCYS 290010
RWRWY

WYOMING REGIONAL WEATHER ROUNDUP
NATIONAL WEATHER SERVICE CHEYENNE WY
600 PM MDT SAT MAY 28 2016

NOTE:  "FAIR" INDICATES FEW OR NO CLOUDS BELOW 12,000 FEET
WITH NO SIGNIFICANT WEATHER AND/OR OBSTRUCTIONS TO VISIBILITY.

WYZ001-290100-
YELLOWSTONE NATIONAL PARK

CITY           SKY/WX    TMP DP  RH WIND       PRES   REMARKS
LK YELLOWSTONE   N/A     49  26  41 VRB6      30.17R
6HR MIN TEMP:  45; 6HR MAX TEMP:  52;

W YELLOWSTONE  NOT AVBL

$$
WYZ002>013-054>058-071-098>099-290100-
NORTHERN WYOMING

CITY           SKY/WX    TMP DP  RH WIND       PRES   REMARKS
JACKSON        MOSUNNY   59  19  21 W8        30.09S
CODY           FAIR      63  43  48 N9        29.99R
GREYBULL       FAIR      71  34  25 VRB3      29.93S
6HR MIN TEMP:  60; 6HR MAX TEMP:  71;

WORLAND        FAIR      71  36  27 N6        29.94S
6HR MIN TEMP:  60; 6HR MAX TEMP:  72;

SHERIDAN       FAIR      66  43  43 W3        29.98S
6HR MIN TEMP:  56; 6HR MAX TEMP:  68; 6HR PCP: TRACE;

BUFFALO        FAIR      61  44  53 N8        30.02S
6HR MIN TEMP:  56; 6HR MAX TEMP:  64;

GILLETTE       FAIR      67  43  41 N8        29.98S
6HR MIN TEMP:  62; 6HR MAX TEMP:  69;

HULETT         FAIR      64  45  48 N6        29.99S
NEWCASTLE      FAIR      61  41  48 E8G22     29.99R

$$
WYZ014>020-022>026-101>103-290100-
CENTRAL WYOMING

CITY           SKY/WX    TMP DP  RH WIND       PRES   REMARKS
BIG PINEY      FAIR      61  26  26 NW12      30.11R
6HR MIN TEMP:  55; 6HR MAX TEMP:  63;

PINEDALE       FAIR      59  27  29 NW7G18    30.11S
DUBOIS         FAIR      59  18  20 N14G23    30.07R
LANDER         FAIR      68  26  20 NW12      29.97R
6HR MIN TEMP:  61; 6HR MAX TEMP:  71;

RIVERTON       FAIR      70  24  17 W9G20     29.98S
6HR MIN TEMP:  62; 6HR MAX TEMP:  72;

CASPER         FAIR      65  39  38 N7        30.00R
6HR MIN TEMP:  51; 6HR MAX TEMP:  69; 6HR PCP: TRACE;

DOUGLAS          N/A    N/A N/A N/A MISG      30.01R

$$
WYZ021-027>030-104>119-290100-
SOUTHERN WYOMING

CITY           SKY/WX    TMP DP  RH WIND       PRES   REMARKS
EVANSTON       FAIR      62  26  25 W21G30    30.13R
6HR MIN TEMP:  56; 6HR MAX TEMP:  63;

KEMMERER         N/A     59  30  33 W16G24    30.13S
FORT BRIDGER   PTCLDY    63  28  27 W15G24    30.15R
ROCK SPRINGS   PTSUNNY   57  38  48 S10       30.10R
6HR MIN TEMP:  55; 6HR MAX TEMP:  65; 6HR PCP: TRACE;

DIXON          FAIR      66  33  30 CALM      30.12S
RAWLINS        PTSUNNY   62  33  33 SW17G24   30.08R
6HR MIN TEMP:  56; 6HR MAX TEMP:  66;

SARATOGA       FAIR      61  32  33 W14G21    30.12S
LARAMIE        PTSUNNY   61  30  31 NW13      30.10S
6HR MIN TEMP:  52; 6HR MAX TEMP:  63; 6HR PCP:  0.01;

CHEYENNE       FAIR      63  36  36 W13       30.06S
6HR MIN TEMP:  59; 6HR MAX TEMP:  70; 6HR PCP: TRACE;

TORRINGTON     FAIR      72  44  36 NE15      29.95R
6HR MIN TEMP:  68; 6HR MAX TEMP:  73;

PINE BLUFFS    MOCLDY    63  39  42 SW10      30.04R

$$




USA.gov is the U.S. government's official web portal to all federal, state and local government web resources and services.